Location: Bailleul
(50.3375°N, 2.8513°E)
Time: 21:14:21
(UTC+00:00)

Cosmos 2016 Rocket - Pass Details

Date: 31 October 2021
Orbit: 947 x 1000 km, 83.0° (Epoch: 02 December)

Event Time Altitude Azimuth Distance (km) Brightness Sun altitude
Rises 16:53:41 0° 121° (ESE) 3,639 6.6 -5.0°
Reaches altitude 10° 16:58:22 10° 89° (E) 2,688 5.7 -5.7°
Maximum altitude 16:59:59 11° 73° (ENE) 2,605 5.6 -6.0°
Drops below altitude 10° 17:01:37 10° 58° (ENE) 2,686 5.7 -6.2°
Sets 17:06:16 0° 25° (NNE) 3,632 6.6 -6.9°
